Flag for Gambia Weather past 2 weeks in Banjul, Gambia

Now
81 °F

Thunderstorms. Passing clouds.


Feels Like: 87 °F
Forecast: N/A
Wind: No wind

Location: Banjul / Yundum

Current Time: Sep 21, 2014 at 8:40:14 PM

Latest Report: Sep 21, 2014 at 8:00 PM


Visibility: N/A

Pressure: 29.89 "Hg

Humidity: 89%

Dew point: 77 °F

Location of BanjulLocation

Historic Weather in Banjul — Graph

°F

Banjul temperature yesterday

Maximum temperature yesterday: 88 °F (at 1:00 PM)
Minimum temperature yesterday: 75 °F (at 12:00 AM)
Average temperature yesterday: 79 °F

Past Weeks' High & Low Weather Summary

 TemperatureHumidityPressure
High90 °F (Sep 7, 2:00 PM)100% (Sep 7, 8:00 PM)29.98 "Hg (Sep 7, 8:00 PM)
Low72 °F (Sep 9, 8:00 PM)54% (Sep 11, 11:00 PM)29.77 "Hg (Sep 7, 3:00 PM)
Average80 °F87%29.87 "Hg
* Reported Sep 6 7:00 PM — Sep 21 7:00 PM, Banjul, Weather by CustomWeather, © 2014

Note: Actual official high and low records may vary slightly from our data, if they occured in-between our weather recording intervals... More about our weather records

Advertising

Banjul weather history for previous 24 hours

 ConditionsComfort  
Time TempWeatherWind HumidityBarometerVisibility
7:00 PM
Sep 21
82 °FThunderstorms. Partly sunny.No wind89%29.89 "Hg6 mi
6:00 PM84 °FThunderstorms. Broken clouds.10 mph79%29.86 "HgN/A
5:00 PM86 °FThunderstorms. Broken clouds.17 mph75%29.86 "HgN/A
4:00 PM84 °FThunderstorms. Broken clouds.6 mph79%29.86 "HgN/A
3:00 PM84 °FThunderstorms. Broken clouds.13 mph74%29.86 "HgN/A
2:00 PM82 °FThunderstorms. Broken clouds.14 mph84%29.89 "HgN/A
1:00 PM86 °FLight rain. Partly sunny.13 mph70%29.89 "HgN/A
12:00 PM86 °FBroken clouds.6 mph75%29.92 "HgN/A
11:00 AM86 °FPartly sunny.No wind75%29.92 "HgN/A
10:00 AM84 °FPartly sunny.9 mph79%29.92 "HgN/A
9:00 AM81 °FScattered clouds.No wind89%29.92 "HgN/A
8:00 AM77 °FScattered clouds.No wind94%29.89 "HgN/A
7:00 AM75 °FMild.No wind100%N/AN/A
6:00 AM77 °FPassing clouds.No wind89%29.89 "HgN/A
5:00 AM77 °FPassing clouds.No wind94%29.92 "HgN/A
4:00 AM77 °FPassing clouds.No wind89%29.92 "HgN/A
3:00 AM77 °FPassing clouds.No wind94%29.92 "HgN/A
2:00 AM77 °FPassing clouds.No wind94%29.95 "HgN/A
1:00 AM77 °FPassing clouds.No wind94%29.92 "HgN/A
12:00 AM79 °FPassing clouds.No wind94%29.95 "HgN/A
11:00 PM
Sep 20
79 °FPassing clouds.No wind89%29.95 "HgN/A
10:00 PM79 °FPassing clouds.No wind89%29.95 "HgN/A
9:00 PM79 °FPassing clouds.No wind94%29.92 "HgN/A
8:00 PM81 °FPassing clouds.6 mph89%29.89 "HgN/A
Weather by CustomWeather, © 2014

See weather overviewHow to use our weather pages